| time (UTC) | temp C | wind direction | speed KPH | gust KPH | rain 1hr cm | rain 24hr cm | rain mn cm | humidity % | barometer mb |
| 20260903163010 | 26 | 167 | 6.4 | 14.5 | 0.00 | 0.00 | 0.00 | 70 | 1008.4 |
| 20260903161505 | 26 | 121 | 4.8 | 12.9 | 0.00 | 0.00 | 0.00 | 72 | 1008.4 |
| 20260903160016 | 26 | 126 | 4.8 | 14.5 | 0.00 | 0.00 | 0.00 | 75 | 1008.5 |
| 20260903154636 | 26 | 124 | 6.4 | 16.1 | 0.00 | 0.00 | 0.00 | 72 | 1008.3 |
| 20260903153018 | 26 | 111 | 4.8 | 12.9 | 0.00 | 0.00 | 0.00 | 75 | 1008.3 |
| 20260903151504 | 25 | 129 | 8.0 | 14.5 | 0.00 | 0.00 | 0.00 | 77 | 1008.3 |
| 20260903150126 | 25 | 96 | 8.0 | 14.5 | 0.00 | 0.00 | 0.00 | 76 | 1008.4 |
| 20260903144630 | 25 | 100 | 6.4 | 12.9 | 0.00 | 0.00 | 0.00 | 77 | 1008.6 |
| 20260903143128 | 24 | 128 | 9.7 | 14.5 | 0.00 | 0.00 | 0.00 | 78 | 1008.5 |
| 20260903141522 | 23 | 125 | 4.8 | 16.1 | 0.00 | 0.00 | 0.00 | 79 | 1008.5 |
| 20260903140127 | 22 | 59 | 6.4 | 16.1 | 0.00 | 0.00 | 0.00 | 80 | 1008.6 |
| 20260903134626 | 21 | 108 | 6.4 | 16.1 | 0.00 | 0.00 | 0.00 | 81 | 1008.7 |
| 20260903133002 | 21 | 83 | 8.0 | 16.1 | 0.00 | 0.00 | 0.00 | 81 | 1008.8 |
| 20260903131503 | 20 | 74 | 8.0 | 14.5 | 0.00 | 0.00 | 0.00 | 82 | 1009.0 |
| 20260903130012 | 20 | 135 | 8.0 | 16.1 | 0.00 | 0.00 | 0.00 | 82 | 1009.0 |
| 20260903124511 | 19 | 130 | 4.8 | 14.5 | 0.00 | 0.00 | 0.00 | 82 | 1008.9 |
| 20260903123127 | 19 | 76 | 3.2 | 9.7 | 0.00 | 0.00 | 0.00 | 83 | 1009.0 |
| 20260903121630 | 18 | 79 | 3.2 | 8.0 | 0.00 | 0.00 | 0.00 | 83 | 1009.0 |
| 20260903120130 | 18 | 49 | 3.2 | 9.7 | 0.00 | 0.00 | 0.00 | 83 | 1009.1 |
| 20260903114502 | 18 | 59 | 3.2 | 6.4 | 0.00 | 0.00 | 0.00 | 83 | 1009.1 |
| 20260903113020 | 18 | 30 | 4.8 | 9.7 | 0.00 | 0.00 | 0.00 | 82 | 1009.0 |
| 20260903111506 | 18 | 76 | 1.6 | 8.0 | 0.00 | 0.00 | 0.00 | 82 | 1009.0 |
| 20260903110003 | 18 | 84 | 4.8 | 9.7 | 0.00 | 0.00 | 0.00 | 82 | 1008.9 |
| 20260903104626 | 18 | 71 | 4.8 | 9.7 | 0.00 | 0.00 | 0.00 | 82 | 1008.7 |
| 20260903103002 | 18 | 70 | 3.2 | 12.9 | 0.00 | 0.00 | 0.00 | 81 | 1008.5 |
| 20260903101628 | 18 | 70 | 6.4 | 14.5 | 0.00 | 0.00 | 0.00 | 82 | 1008.6 |
| 20260903100018 | 18 | 75 | 4.8 | 12.9 | 0.00 | 0.00 | 0.00 | 82 | 1008.5 |
| 20260903094510 | 19 | 40 | 1.6 | 8.0 | 0.00 | 0.00 | 0.00 | 81 | 1008.5 |
| 20260903093031 | 19 | 49 | 3.2 | 11.3 | 0.00 | 0.00 | 0.00 | 80 | 1008.4 |
| 20260903091506 | 19 | 72 | 4.8 | 9.7 | 0.00 | 0.00 | 0.00 | 81 | 1008.4 |
| 20260903090023 | 19 | 76 | 3.2 | 6.4 | 0.00 | 0.00 | 0.00 | 81 | 1008.6 |
| 20260903084624 | 19 | 62 | 3.2 | 8.0 | 0.00 | 0.00 | 0.00 | 79 | 1008.8 |
| 20260903083001 | 19 | 59 | 1.6 | 9.7 | 0.00 | 0.00 | 0.00 | 79 | 1008.8 |
| 20260903081630 | 19 | 48 | 3.2 | 12.9 | 0.00 | 0.00 | 0.00 | 79 | 1008.7 |
| 20260903080125 | 19 | 92 | 4.8 | 14.5 | 0.00 | 0.00 | 0.00 | 78 | 1008.8 |
| 20260903074509 | 20 | 65 | 4.8 | 11.3 | 0.00 | 0.00 | 0.00 | 77 | 1008.9 |
| 20260903073012 | 20 | 80 | 1.6 | 6.4 | 0.00 | 0.00 | 0.00 | 77 | 1009.0 |
| 20260903071626 | 20 | 98 | 3.2 | 8.0 | 0.00 | 0.00 | 0.00 | 76 | 1009.0 |
| 20260903070019 | 20 | 35 | 3.2 | 14.5 | 0.00 | 0.00 | 0.00 | 74 | 1009.1 |
| 20260903064506 | 20 | 57 | 3.2 | 9.7 | 0.00 | 0.00 | 0.00 | 74 | 1009.3 |
| 20260903063125 | 21 | 22 | 4.8 | 9.7 | 0.00 | 0.00 | 0.00 | 74 | 1009.2 |
| 20260903061630 | 21 | 63 | 3.2 | 8.0 | 0.00 | 0.00 | 0.00 | 74 | 1009.3 |
| 20260903060131 | 21 | 66 | 1.6 | 4.8 | 0.00 | 0.00 | 0.00 | 75 | 1009.5 |
| 20260903054522 | 20 | 72 | 1.6 | 8.0 | 0.00 | 0.00 | 0.00 | 75 | 1009.6 |
| 20260903053130 | 20 | 48 | 1.6 | 8.0 | 0.00 | 0.00 | 0.00 | 75 | 1009.6 |
| 20260903051505 | 20 | 49 | 1.6 | 6.4 | 0.00 | 0.00 | 0.00 | 74 | 1009.7 |
| 20260903050009 | 21 | 42 | 1.6 | 6.4 | 0.00 | 0.00 | 0.00 | 73 | 1009.7 |
| 20260903044506 | 21 | 38 | 1.6 | 6.4 | 0.00 | 0.00 | 0.00 | 73 | 1009.7 |
| 20260903043124 | 21 | 40 | 3.2 | 6.4 | 0.00 | 0.00 | 0.00 | 72 | 1009.7 |
| 20260903041517 | 21 | 65 | 1.6 | 8.0 | 0.00 | 0.00 | 0.00 | 71 | 1009.7 |
| 20260903040008 | 21 | 59 | 4.8 | 9.7 | 0.00 | 0.00 | 0.00 | 70 | 1009.7 |
| 20260903034514 | 22 | 51 | 4.8 | 9.7 | 0.00 | 0.00 | 0.00 | 69 | 1009.7 |
| 20260903033122 | 22 | 51 | 4.8 | 9.7 | 0.00 | 0.00 | 0.00 | 68 | 1009.9 |
| 20260903031503 | 22 | 49 | 3.2 | 8.0 | 0.00 | 0.00 | 0.00 | 69 | 1009.9 |
| 20260903030127 | 22 | 43 | 3.2 | 9.7 | 0.00 | 0.00 | 0.00 | 68 | 1010.0 |
| 20260903024512 | 22 | 74 | 3.2 | 8.0 | 0.00 | 0.00 | 0.00 | 67 | 1009.9 |
| 20260903023002 | 23 | 55 | 4.8 | 9.7 | 0.00 | 0.00 | 0.00 | 67 | 1010.0 |
| 20260903021627 | 22 | 56 | 1.6 | 8.0 | 0.00 | 0.00 | 0.00 | 69 | 1009.9 |
| 20260903020012 | 22 | 43 | 3.2 | 4.8 | 0.00 | 0.00 | 0.00 | 71 | 1009.7 |
| 20260903014510 | 23 | 43 | 1.6 | 4.8 | 0.00 | 0.00 | 0.00 | 69 | 1009.3 |
| 20260903013007 | 22 | 43 | 3.2 | 6.4 | 0.00 | 0.00 | 0.00 | 72 | 1009.2 |
| 20260903011510 | 22 | 43 | 1.6 | 3.2 | 0.00 | 0.00 | 0.00 | 72 | 1009.2 |
| 20260903010008 | 22 | 43 | 0.0 | 1.6 | 0.00 | 0.00 | 0.00 | 69 | 1009.2 |
| 20260903004520 | 24 | 43 | 0.0 | 4.8 | 0.00 | 0.00 | 0.00 | 64 | 1009.2 |
| 20260903003010 | 26 | 43 | 1.6 | 8.0 | 0.00 | 0.00 | 0.00 | 57 | 1009.1 |
| 20260903001514 | 26 | 45 | 3.2 | 8.0 | 0.00 | 0.00 | 0.00 | 56 | 1009.1 |
| 20260903000132 | 26 | 64 | 4.8 | 9.7 | 0.00 | 0.00 | 0.00 | 56 | 1009.0 |
| 20260902234505 | 27 | 35 | 4.8 | 8.0 | 0.00 | 0.00 | 0.00 | 54 | 1009.2 |
| 20260902233002 | 27 | 69 | 1.6 | 8.0 | 0.00 | 0.00 | 0.00 | 59 | 1009.1 |
| 20260902231518 | 26 | 85 | 1.6 | 4.8 | 0.00 | 0.00 | 0.00 | 58 | 1009.1 |
| 20260902230139 | 28 | 53 | 4.8 | 12.9 | 0.00 | 0.00 | 0.00 | 52 | 1009.2 |
| 20260902224514 | 27 | 69 | 6.4 | 9.7 | 0.00 | 0.00 | 0.00 | 53 | 1009.2 |
| 20260902223128 | 28 | 146 | 3.2 | 8.0 | 0.00 | 0.00 | 0.00 | 50 | 1009.3 |
| 20260902221516 | 27 | 76 | 3.2 | 8.0 | 0.00 | 0.00 | 0.00 | 53 | 1009.3 |
| 20260902220006 | 27 | 300 | 1.6 | 9.7 | 0.00 | 0.00 | 0.00 | 52 | 1009.4 |
| 20260902214510 | 28 | 351 | 6.4 | 11.3 | 0.00 | 0.00 | 0.00 | 52 | 1009.2 |
| 20260902213013 | 28 | 52 | 4.8 | 12.9 | 0.00 | 0.00 | 0.00 | 52 | 1009.4 |
| 20260902211518 | 28 | 88 | 6.4 | 14.5 | 0.00 | 0.00 | 0.00 | 53 | 1009.5 |
| 20260902210010 | 27 | 48 | 1.6 | 14.5 | 0.00 | 0.00 | 0.00 | 53 | 1009.6 |
| 20260902204514 | 27 | 355 | 4.8 | 11.3 | 0.00 | 0.00 | 0.00 | 54 | 1009.6 |
| 20260902203008 | 27 | 55 | 1.6 | 9.7 | 0.00 | 0.00 | 0.00 | 55 | 1009.7 |
| 20260902201503 | 27 | 101 | 4.8 | 14.5 | 0.00 | 0.00 | 0.00 | 56 | 1009.7 |
| 20260902200021 | 26 | 20 | 3.2 | 11.3 | 0.00 | 0.00 | 0.00 | 59 | 1009.8 |
| 20260902194507 | 26 | 63 | 3.2 | 9.7 | 0.00 | 0.00 | 0.00 | 58 | 1010.0 |
| 20260902193131 | 27 | 54 | 6.4 | 14.5 | 0.00 | 0.00 | 0.00 | 59 | 1010.0 |
| 20260902191621 | 26 | 88 | 1.6 | 9.7 | 0.00 | 0.00 | 0.00 | 58 | 1010.2 |
| 20260902190004 | 26 | 54 | 1.6 | 9.7 | 0.00 | 0.00 | 0.00 | 56 | 1010.5 |
| 20260902184512 | 26 | 87 | 4.8 | 9.7 | 0.00 | 0.00 | 0.00 | 58 | 1010.7 |
| 20260902183018 | 26 | 61 | 4.8 | 9.7 | 0.00 | 0.00 | 0.00 | 60 | 1010.8 |
| 20260902181629 | 26 | 22 | 3.2 | 16.1 | 0.00 | 0.00 | 0.00 | 59 | 1010.9 |
| 20260902180008 | 26 | 112 | 1.6 | 6.4 | 0.00 | 0.00 | 0.00 | 66 | 1011.0 |
| 20260902174626 | 25 | 119 | 4.8 | 14.5 | 0.00 | 0.00 | 0.00 | 65 | 1011.0 |
| 20260902173012 | 25 | 22 | 1.6 | 9.7 | 0.00 | 0.00 | 0.00 | 65 | 1011.0 |
| 20260902171511 | 25 | 45 | 3.2 | 9.7 | 0.00 | 0.00 | 0.00 | 66 | 1011.0 |
| 20260902170011 | 25 | 40 | 1.6 | 9.7 | 0.00 | 0.00 | 0.00 | 64 | 1011.1 |
| 20260902164626 | 25 | 69 | 4.8 | 9.7 | 0.00 | 0.00 | 0.00 | 65 | 1011.1 |